Cloud_Cover
47 7 18 100 65 44 100 11 5 5 1 2 5 4 0 0 0 0 0 0 0 0 1 11 5 11 32 10 0 0 0 0 0 0 0 0 0 0 0 0 0 0 0 0 0
20 55 84 95 5 6 100 96 42 5 5 3 0 0 2 0 2 1 0 0 0 48 73 44 84 100 100 5 1 0 0 4 0 0 0 0 0 0 0 0 0 0 0 0 5
98 100 100 61 20 12 6 100 5 5 5 4 5 5 0 5 0 0 0 0 0 4 79 100 100 100 100 17 5 5 5 2 0 0 0 0 0 0 0 2 3 28 89 100 41
64 89 6 51 96 96 100 32 67 88 8 5 5 5 0 0 5 5 0 0 1 52 100 100 100 100 62 83 9 5 5 0 0 0 0 0 0 0 0 6 35 78 100 97 100
59 45 6 10 7 95 21 85 80 12 44 6 5 5 5 4 0 5 4 5 5 13 83 100 100 94 81 70 5 5 5 0 0 0 0 0 0 0 2 32 30 98 100 98 98
56 25 5 22 24 34 30 38 40 15 30 26 5 1 4 5 2 1 1 0 5 21 100 100 100 100 100 13 5 5 5 0 0 0 0 0 0 0 0 5 2 72 100 95 100
98 75 35 71 6 5 8 5 5 5 5 5 5 0 2 3 5 5 5 7 87 100 100 100 100 100 94 9 5 5 1 0 0 0 0 0 0 0 2 5 2 75 100 100 100
100 100 100 99 91 13 5 5 5 5 5 5 5 5 5 5 5 6 84 100 100 100 100 100 100 100 48 8 2 4 0 0 0 0 0 0 0 0 1 1 1 38 100 82 100
92 100 100 91 74 94 5 10 15 34 5 95 91 13 59 5 21 91 100 100 100 100 100 100 100 83 36 4 0 0 0 0 0 0 0 0 0 0 0 3 27 98 100 97 99
100 99 100 100 98 14 53 92 91 72 51 42 100 100 100 65 100 100 100 100 100 100 100 100 94 16 2 0 2 0 3 3 0 0 0 0 0 0 5 3 92 100 100 100 100
100 100 100 100 92 24 58 42 71 21 34 86 98 100 100 100 100 100 100 100 100 100 100 98 9 0 0 0 0 36 56 73 0 0 0 0 0 0 3 0 95 94 100 100 100
98 17 6 31 32 5 37 38 51 43 79 100 100 100 100 100 65 62 100 100 100 100 97 17 0 0 0 0 0 3 9 1 0 0 0 16 7 0 5 3 96 100 100 100 100
99 86 86 88 60 5 29 86 70 88 88 64 72 36 17 61 5 94 100 99 93 26 1 0 0 0 1 4 0 0 0 0 0 0 0 0 2 56 3 2 99 91 100 100 100
100 100 98 97 79 75 28 58 10 51 78 88 6 12 29 41 6 5 5 4 0 0 0 0 0 0 5 5 0 0 0 0 0 0 0 0 5 0 0 0 68 100 100 100 100
100 100 80 97 98 100 100 72 11 64 68 93 23 58 17 20 5 4 5 5 0 0 0 0 0 0 3 5 0 0 0 0 0 0 0 0 0 0 0 0 20 100 100 100 100
100 99 98 75 91 99 100 100 82 8 14 31 55 18 53 51 6 5 0 2 5 0 0 0 1 4 3 0 0 0 0 0 0 0 5 0 0 0 0 0 0 39 87 100 100
100 100 100 75 97 98 100 97 92 93 29 5 56 90 100 63 5 3 3 5 5 0 1 0 2 5 0 0 0 0 0 4 2 5 0 0 0 0 0 0 0 0 4 33 38
100 100 100 71 100 92 100 100 100 78 18 21 36 62 100 56 5 4 5 5 5 0 1 3 5 5 5 0 0 0 0 0 0 0 0 0 0 0 4 0 0 0 1 14 18
100 100 100 91 100 100 94 100 91 98 84 63 48 68 68 71 15 5 5 5 5 0 0 5 30 35 4 5 5 3 0 0 1 2 4 0 0 0 0 0 0 0 0 6 5
100 100 85 95 100 100 100 100 100 100 25 70 24 55 100 100 58 28 5 5 5 5 5 5 5 5 5 4 8 5 0 1 3 1 0 0 0 0 0 0 0 0 0 0 18
100 100 91 100 100 100 100 100 100 100 38 52 14 58 100 100 76 36 5 7 5 5 5 98 48 22 15 5 13 6 4 5 3 5 2 0 0 0 0 0 0 0 0 0 0
100 100 100 100 100 100 100 100 100 100 100 27 65 67 100 100 100 50 5 15 5 11 5 100 97 90 65 92 73 7 0 1 0 5 5 3 0 0 0 0 0 0 0 0 0
100 100 100 100 65 100 100 100 100 100 100 100 83 55 91 72 98 98 100 40 10 59 20 22 100 100 40 75 100 100 24 5 5 2 5 4 3 0 0 0 0 0 2 1 0
100 100 100 80 100 100 100 100 100 100 100 100 97 14 32 63 34 78 100 94 6 79 94 100 100 100 95 66 99 99 78 16 5 17 5 1 2 0 0 0 0 0 0 4 5
100 84 100 100 100 100 100 100 100 100 100 100 100 100 72 99 59 78 100 100 50 23 70 87 100 100 98 9 22 100 98 95 14 5 5 5 5 2 0 0 0 0 5 21 85
100 99 100 100 100 100 93 71 54 100 100 100 100 43 95 100 100 35 5 100 99 92 62 100 100 100 100 100 51 83 90 59 40 5 5 5 5 3 100 2 0 0 1 2 100
100 100 100 100 94 99 84 100 100 100 100 100 94 27 93 100 100 97 73 93 94 97 100 87 78 72 100 100 96 21 77 100 63 24 5 5 1 0 0 6 4 0 8 3 52